Regional Weather Roundup
Issued by NWS

Home | Current Version | Previous Version | Text Only | Print | Product List | Glossary On
Versions: 1 2 3 4 5 6 7 8 9 10 11 12 13 14 15 16 17 18 19 20 21 22 23 24 25 26 27 28 29 30 31 32 33 34 35 36 37 38 39 40 41 42 43 44 45 46 47 48 49 50
000
ASUS44 KJAN 182010
RWRMS

MISSISSIPPI HOURLY WEATHER ROUNDUP
NATIONAL WEATHER SERVICE JACKSON MS
300 PM CDT FRI APR 18 2014

NOTE: "FAIR: INDICATES FEW OR NO CLOUDS BELOW 12,000 FEET WITH NO
SIGNIFICANT WEATHER AND/OR OBSTRUCTIONS TO VISIBILITY.

MSZ001>002-007>008-010>013-018>021-025>028-034>036-182100-
NORTHWEST MISSISSIPPI

CITY           SKY/WX    TMP DP  RH WIND       PRES   REMARKS
CLARKSDALE       N/A     72  50  46 N12       30.18F
CLEVELAND      MOCLDY    70  56  59 N13G18    30.17S
GREENWOOD      CLOUDY    72  54  53 NE8       30.15F
GREENVILLE     CLOUDY    72  53  51 NE12G18   30.16F
GRENADA        FAIR      70  55  60 E10       30.17F
OLIVE BRANCH   PTSUNNY   70  50  49 NE9       30.20F
OXFORD         FAIR      68  50  52 E7        30.19F
TUNICA         PTCLDY    70  50  49 N8        30.19F
$$

MSZ003>006-009-014>017-022>024-029>033-037>039-182100-
NORTHEAST MISSISSIPPI

CITY           SKY/WX    TMP DP  RH WIND       PRES   REMARKS
BELMONT        CLOUDY    60  53  79 NE3       30.21F
COLUMBUS AFB   PTSUNNY   65  53  63 VRB2      30.18F
CORINTH        CLOUDY    64  48  55 SE9       30.21F
GOLDN TRIANGLE PTSUNNY   64  54  68 NE9       30.21F
STARKVILLE     CLOUDY    63  55  77 N3        30.18F
TUPELO         CLOUDY    60  53  77 NE6       30.21F
$$

MSZ040-058-182100-
CENTRAL MISSISSIPPI

CITY           SKY/WX    TMP DP  RH WIND       PRES   REMARKS
JACKSON INTL   CLOUDY    71  57  61 N13       30.12F
JACKSON HAWKNS CLOUDY    71  55  56 MISG      30.13F
MERIDIAN KEY   CLOUDY    61  54  77 N10       30.14F
MERIDIAN NAS   CLOUDY    61  53  75 NE9       30.15F
RAYMOND        MOCLDY    70  64  83 N8        30.13F
VICKSBURG      NOT AVBL
$$

MSZ059>079-182100-
SOUTH MISSISSIPPI

CITY           SKY/WX    TMP DP  RH WIND       PRES   REMARKS
BROOKHAVEN     MOCLDY    72  57  60 NE9G17    30.12F
COLUMBIA       MOCLDY    70  59  68 MISG      30.08F
HATTIESBURG    CLOUDY    61  56  83 N14       30.12S
MCCOMB         PTSUNNY   72  55  55 NE8       30.10S
NATCHEZ        PTSUNNY   73  57  56 NE8       30.11S
PINE BELT      CLOUDY    61  54  77 NE13      30.13F
$$

MSZ080>082-182100-
COASTAL MISSISSIPPI

CITY           SKY/WX    TMP DP  RH WIND       PRES   REMARKS
BAY ST LOUIS     N/A     64  57  77 N12G26    30.07S
BILOXI         CLOUDY    67  59  74 NE16      30.04S
PASCAGOULA     CLOUDY    64  58  80 N16       30.04F
GULFPORT       CLOUDY    70  58  65 N17       30.04S
$$



USA.gov is the U.S. government's official web portal to all federal, state and local government web resources and services.